Location: Anuling
(14.1239°N, 120.8922°E)
Time: 04:43:29
(UTC+00:00)

Cosmos 1869 Rocket - Pass Details

Date: 14 January 2026
Orbit: 597 x 626 km, 82.5° (Epoch: 11 February)

Event Time Altitude Azimuth Distance (km) Brightness Sun altitude
Rises 10:47:44 0° 3° (N) 2,865 6.8 -14.7°
Reaches altitude 10° 10:50:01 10° 8° (N) 1,955 5.9 -15.2°
Maximum altitude 10:54:13 51° 85° (E) 757 3.6 -16.2°
Drops below altitude 10° 10:58:23 10° 161° (SSE) 1,938 6.1 -17.2°
Sets 11:00:38 0° 166° (SSE) 2,836 7.0 -17.7°
